SWA561 DNMM-FGSL

Flight info

Callsign SWA561
Flight time N/A
Altitude 35000
Route BOTBO1Q BOTBO UR984 POT NAPAP1B
Aircraft B738/M-SDE2E3FGHIRWXY/LB1

Departure

Time 2026-04-28 20:04
Airport Murtala Muhammed International Airport (DNMM)

Arrival

Time N/A
Airport Malabo International Airport (FGSL)
Time Latitude Longitude Altitude Speed Heading
2026-04-28 19:53 6.57920 3.32265 95 ft 0 kts 291°
2026-04-28 19:56 6.57916 3.32276 95 ft 2 kts 291°
2026-04-28 19:57 6.57910 3.32292 97 ft 2 kts 291°
2026-04-28 19:57 6.57904 3.32307 99 ft 2 kts 291°
2026-04-28 19:57 6.57897 3.32323 99 ft 2 kts 291°
2026-04-28 19:57 6.57891 3.32338 100 ft 2 kts 291°
2026-04-28 19:58 6.57887 3.32348 100 ft 0 kts 291°
2026-04-28 19:58 6.57888 3.32348 100 ft 0 kts 291°
2026-04-28 19:58 6.57896 3.32345 101 ft 6 kts 346°
2026-04-28 19:58 6.57934 3.32355 102 ft 6 kts 20°
2026-04-28 19:59 6.58001 3.32381 104 ft 17 kts 24°
2026-04-28 19:59 6.58138 3.32415 108 ft 20 kts 346°
2026-04-28 19:59 6.58201 3.32327 105 ft 16 kts 293°
2026-04-28 19:59 6.58242 3.32228 101 ft 15 kts 292°
2026-04-28 20:00 6.58271 3.32120 95 ft 17 kts 269°
2026-04-28 20:00 6.58237 3.32003 89 ft 19 kts 249°
2026-04-28 20:00 6.58185 3.31878 83 ft 20 kts 246°
2026-04-28 20:00 6.58129 3.31749 69 ft 20 kts 246°
2026-04-28 20:01 6.58076 3.31624 69 ft 19 kts 252°
2026-04-28 20:01 6.58105 3.31535 69 ft 13 kts 337°
2026-04-28 20:01 6.58194 3.31527 71 ft 13 kts 358°
2026-04-28 20:01 6.58315 3.31525 70 ft 30 kts 359°
2026-04-28 20:02 6.58576 3.31521 68 ft 38 kts 359°
2026-04-28 20:02 6.58792 3.31495 68 ft 23 kts 310°
2026-04-28 20:02 6.58772 3.31355 70 ft 22 kts 218°
2026-04-28 20:02 6.58694 3.31323 65 ft 0 kts 183°
2026-04-28 20:03 6.58687 3.31322 68 ft 12 kts 181°
2026-04-28 20:03 6.58349 3.31325 72 ft 84 kts 179°
2026-04-28 20:03 6.57537 3.31333 65 ft 146 kts 180°
2026-04-28 20:04 6.56369 3.31359 279 ft 178 kts 180°
2026-04-28 20:04 6.55102 3.31409 934 ft 191 kts 178°
2026-04-28 20:04 6.53710 3.31458 1329 ft 210 kts 179°
2026-04-28 20:04 6.52221 3.31521 1821 ft 221 kts 176°
2026-04-28 20:05 6.50665 3.31746 2397 ft 229 kts 171°
2026-04-28 20:05 6.49044 3.32057 2847 ft 247 kts 168°
2026-04-28 20:05 6.47379 3.32447 3795 ft 240 kts 166°
2026-04-28 20:05 6.45803 3.32836 4941 ft 226 kts 165°
2026-04-28 20:06 6.44261 3.33219 5735 ft 229 kts 164°
2026-04-28 20:06 6.42710 3.33604 6471 ft 231 kts 163°
2026-04-28 20:06 6.41136 3.33995 7122 ft 235 kts 162°
2026-04-28 20:06 6.39594 3.34477 7773 ft 234 kts 146°
2026-04-28 20:07 6.38439 3.35587 8374 ft 234 kts 117°
2026-04-28 20:07 6.38004 3.36631 8513 ft 248 kts 102°
2026-04-28 20:07 6.37584 3.39006 9064 ft 268 kts 97°
2026-04-28 20:07 6.37319 3.40872 9828 ft 271 kts 96°
2026-04-28 20:08 6.37053 3.42781 10362 ft 282 kts 97°
2026-04-28 20:08 6.36775 3.44762 10774 ft 295 kts 97°
2026-04-28 20:08 6.36481 3.46825 11392 ft 300 kts 97°
2026-04-28 20:08 6.36178 3.48912 12091 ft 303 kts 97°
2026-04-28 20:09 6.35869 3.51023 12768 ft 307 kts 97°
2026-04-28 20:09 6.35554 3.53158 13434 ft 311 kts 97°
2026-04-28 20:09 6.35233 3.55324 14038 ft 315 kts 98°
2026-04-28 20:09 6.34908 3.57515 14609 ft 319 kts 98°
2026-04-28 20:10 6.34577 3.59734 15195 ft 322 kts 98°
2026-04-28 20:10 6.34246 3.61951 15761 ft 326 kts 98°
2026-04-28 20:10 6.33908 3.64220 16333 ft 330 kts 98°
2026-04-28 20:10 6.33565 3.66517 16894 ft 334 kts 98°
2026-04-28 20:11 6.33217 3.68839 17451 ft 338 kts 98°
2026-04-28 20:11 6.32865 3.71194 18012 ft 342 kts 98°
2026-04-28 20:11 6.32509 3.73577 18507 ft 346 kts 98°
2026-04-28 20:11 6.32149 3.75979 18986 ft 349 kts 98°
2026-04-28 20:12 6.31786 3.78404 19480 ft 352 kts 98°
2026-04-28 20:12 6.31421 3.80842 19961 ft 355 kts 98°
2026-04-28 20:12 6.31052 3.83309 20436 ft 358 kts 98°
2026-04-28 20:12 6.30804 3.84959 20753 ft 360 kts 98°
2026-04-28 20:13 6.30306 3.88286 21357 ft 365 kts 98°
2026-04-28 20:13 6.30049 3.90001 21669 ft 367 kts 98°
2026-04-28 20:13 6.29541 3.93386 22259 ft 371 kts 98°
2026-04-28 20:13 6.29154 3.95967 22710 ft 375 kts 98°
2026-04-28 20:14 6.28762 3.98575 23142 ft 378 kts 98°
2026-04-28 20:14 6.28369 4.01197 23565 ft 381 kts 98°
2026-04-28 20:14 6.27972 4.03836 23934 ft 383 kts 98°
2026-04-28 20:14 6.27573 4.06494 24309 ft 385 kts 98°
2026-04-28 20:15 6.27172 4.09162 24680 ft 387 kts 98°
2026-04-28 20:15 6.26768 4.11849 25054 ft 389 kts 98°
2026-04-28 20:15 6.26367 4.14514 25421 ft 391 kts 98°
2026-04-28 20:15 6.25959 4.17223 25797 ft 393 kts 98°
2026-04-28 20:16 6.25549 4.19949 26159 ft 395 kts 98°
2026-04-28 20:16 6.25138 4.22684 26543 ft 397 kts 97°
2026-04-28 20:16 6.24723 4.25438 26848 ft 400 kts 98°
2026-04-28 20:16 6.24303 4.28222 27120 ft 405 kts 98°
2026-04-28 20:17 6.23814 4.31013 27440 ft 408 kts 105°
2026-04-28 20:17 6.22763 4.33674 27778 ft 410 kts 114°
2026-04-28 20:17 6.21520 4.36262 28128 ft 412 kts 115°
2026-04-28 20:17 6.20241 4.38843 28442 ft 414 kts 115°
2026-04-28 20:18 6.18949 4.41450 28758 ft 417 kts 115°
2026-04-28 20:18 6.18096 4.43185 28965 ft 418 kts 115°
2026-04-28 20:18 6.16384 4.46709 29390 ft 421 kts 115°
2026-04-28 20:18 6.15126 4.49327 29697 ft 422 kts 114°
2026-04-28 20:19 6.13851 4.51994 29989 ft 424 kts 114°
2026-04-28 20:19 6.12572 4.54678 30246 ft 426 kts 114°
2026-04-28 20:19 6.11290 4.57370 30501 ft 428 kts 114°
2026-04-28 20:19 6.10003 4.60074 30753 ft 429 kts 114°
2026-04-28 20:20 6.08712 4.62783 30985 ft 431 kts 114°
2026-04-28 20:20 6.07411 4.65515 31210 ft 434 kts 114°
2026-04-28 20:20 6.06106 4.68252 31426 ft 436 kts 114°
2026-04-28 20:20 6.04791 4.71012 31658 ft 437 kts 115°
2026-04-28 20:21 6.03493 4.73733 31894 ft 438 kts 115°
2026-04-28 20:21 6.02172 4.76503 32113 ft 440 kts 115°
2026-04-28 20:21 6.00844 4.79286 32322 ft 442 kts 115°
2026-04-28 20:21 5.99515 4.82073 32526 ft 444 kts 115°
2026-04-28 20:22 5.98177 4.84877 32737 ft 446 kts 115°
2026-04-28 20:22 5.96830 4.87698 32933 ft 448 kts 115°
2026-04-28 20:22 5.95482 4.90524 33135 ft 449 kts 115°
2026-04-28 20:22 5.94125 4.93367 33311 ft 451 kts 115°
2026-04-28 20:23 5.92763 4.96220 33518 ft 453 kts 115°
2026-04-28 20:23 5.91399 4.99077 33710 ft 454 kts 115°
2026-04-28 20:23 5.90030 5.01943 33895 ft 456 kts 115°
2026-04-28 20:24 5.87273 5.07703 34203 ft 459 kts 115°
2026-04-28 20:24 5.85907 5.10552 34452 ft 457 kts 115°
2026-04-28 20:24 5.84531 5.13421 34748 ft 455 kts 115°
2026-04-28 20:24 5.83160 5.16281 34896 ft 456 kts 115°
2026-04-28 20:25 5.81780 5.19162 34891 ft 458 kts 115°
2026-04-28 20:25 5.79033 5.24893 34890 ft 453 kts 115°
2026-04-28 20:26 5.76308 5.30578 34898 ft 449 kts 115°
2026-04-28 20:26 5.73605 5.36215 34899 ft 447 kts 115°
2026-04-28 20:27 5.70910 5.41833 34900 ft 446 kts 115°
2026-04-28 20:27 5.68235 5.47409 34900 ft 445 kts 115°
2026-04-28 20:28 5.65538 5.53029 34902 ft 446 kts 115°
2026-04-28 20:28 5.63296 5.57699 34901 ft 447 kts 115°
2026-04-28 20:29 5.60592 5.63331 34902 ft 449 kts 115°
2026-04-28 20:29 5.57872 5.68994 34898 ft 450 kts 115°
2026-04-28 20:30 5.54698 5.75599 34895 ft 452 kts 115°
2026-04-28 20:30 5.51961 5.81295 34898 ft 453 kts 115°
2026-04-28 20:31 5.49681 5.86037 34898 ft 454 kts 115°
2026-04-28 20:31 5.46935 5.91747 34897 ft 454 kts 115°
2026-04-28 20:32 5.44192 5.97449 34899 ft 453 kts 115°
2026-04-28 20:32 5.41453 6.03143 34899 ft 452 kts 115°
2026-04-28 20:33 5.38717 6.08830 34898 ft 451 kts 115°
2026-04-28 20:33 5.36006 6.14462 34896 ft 449 kts 115°
2026-04-28 20:34 5.33381 6.20145 34898 ft 447 kts 111°
2026-04-28 20:34 5.31105 6.25949 34903 ft 446 kts 110°
2026-04-28 20:35 5.28881 6.31754 34897 ft 444 kts 110°
2026-04-28 20:35 5.26643 6.37486 34898 ft 443 kts 110°
2026-04-28 20:36 5.24381 6.43223 34900 ft 442 kts 111°
2026-04-28 20:36 5.22118 6.48958 34899 ft 441 kts 111°
2026-04-28 20:37 5.19860 6.54682 34902 ft 441 kts 110°
2026-04-28 20:37 5.17601 6.60409 34902 ft 441 kts 110°
2026-04-28 20:38 5.15369 6.66095 34901 ft 441 kts 110°
2026-04-28 20:38 5.13125 6.71823 34904 ft 441 kts 110°
2026-04-28 20:39 5.10873 6.77566 34905 ft 442 kts 110°
2026-04-28 20:39 5.08623 6.83301 34904 ft 442 kts 110°
2026-04-28 20:40 5.06380 6.89017 34895 ft 440 kts 110°
2026-04-28 20:40 5.04138 6.94692 34901 ft 436 kts 112°
2026-04-28 20:41 5.01016 6.99928 34532 ft 439 kts 124°
2026-04-28 20:41 4.99219 7.02399 34168 ft 434 kts 124°
2026-04-28 20:41 4.97431 7.04823 33754 ft 431 kts 124°
2026-04-28 20:41 4.95647 7.07243 33301 ft 429 kts 124°
2026-04-28 20:42 4.93891 7.09641 32865 ft 426 kts 124°
2026-04-28 20:42 4.92151 7.12035 32442 ft 423 kts 124°
2026-04-28 20:42 4.90448 7.14391 32029 ft 420 kts 124°
2026-04-28 20:42 4.88741 7.16760 31614 ft 418 kts 123°
2026-04-28 20:43 4.87048 7.19112 31209 ft 416 kts 123°
2026-04-28 20:43 4.85358 7.21462 30791 ft 414 kts 123°
2026-04-28 20:43 4.83677 7.23801 30381 ft 412 kts 123°
2026-04-28 20:43 4.82001 7.26133 29954 ft 411 kts 123°
2026-04-28 20:44 4.80332 7.28454 29487 ft 409 kts 123°
2026-04-28 20:44 4.78674 7.30758 29046 ft 406 kts 124°
2026-04-28 20:44 4.77045 7.33022 28619 ft 403 kts 124°
2026-04-28 20:44 4.75413 7.35291 28182 ft 400 kts 124°
2026-04-28 20:45 4.73788 7.37548 27784 ft 397 kts 124°
2026-04-28 20:45 4.72176 7.39789 27370 ft 395 kts 124°
2026-04-28 20:45 4.70573 7.42015 26961 ft 391 kts 124°
2026-04-28 20:45 4.68997 7.44205 26542 ft 382 kts 124°
2026-04-28 20:46 4.67456 7.46344 26144 ft 374 kts 124°
2026-04-28 20:46 4.65951 7.48434 25762 ft 366 kts 124°
2026-04-28 20:46 4.64474 7.50485 25385 ft 358 kts 124°
2026-04-28 20:46 4.63049 7.52464 25021 ft 352 kts 124°
2026-04-28 20:47 4.61625 7.54442 24646 ft 347 kts 124°
2026-04-28 20:47 4.60221 7.56391 24276 ft 343 kts 124°
2026-04-28 20:47 4.58825 7.58331 23921 ft 345 kts 124°
2026-04-28 20:47 4.57412 7.60295 23547 ft 350 kts 125°
2026-04-28 20:48 4.55977 7.62287 23111 ft 353 kts 125°
2026-04-28 20:48 4.54541 7.64281 22727 ft 353 kts 124°
2026-04-28 20:48 4.53106 7.66273 22337 ft 351 kts 124°
2026-04-28 20:48 4.51680 7.68252 21965 ft 350 kts 124°
2026-04-28 20:49 4.50256 7.70227 21586 ft 348 kts 124°
2026-04-28 20:49 4.48838 7.72194 21217 ft 347 kts 124°
2026-04-28 20:49 4.47441 7.74133 20847 ft 345 kts 124°
2026-04-28 20:49 4.46038 7.76079 20490 ft 344 kts 124°
2026-04-28 20:50 4.44638 7.78022 20125 ft 343 kts 124°
2026-04-28 20:50 4.43243 7.79956 19767 ft 341 kts 124°
2026-04-28 20:50 4.41853 7.81884 19402 ft 340 kts 124°
2026-04-28 20:50 4.40466 7.83809 19027 ft 340 kts 123°
2026-04-28 20:51 4.39082 7.85728 18662 ft 339 kts 123°
2026-04-28 20:51 4.37705 7.87638 18301 ft 337 kts 123°
2026-04-28 20:51 4.36362 7.89499 17883 ft 329 kts 123°
2026-04-28 20:51 4.35464 7.90744 17628 ft 323 kts 123°
2026-04-28 20:52 4.33748 7.93120 17171 ft 311 kts 123°
2026-04-28 20:52 4.32501 7.94847 16880 ft 301 kts 123°
2026-04-28 20:52 4.31287 7.96529 16552 ft 294 kts 122°
2026-04-28 20:52 4.30100 7.98175 16239 ft 290 kts 122°
2026-04-28 20:53 4.27744 8.01445 15630 ft 290 kts 122°
2026-04-28 20:53 4.26570 8.03075 15322 ft 294 kts 122°
2026-04-28 20:53 4.25374 8.04735 14995 ft 293 kts 122°
2026-04-28 20:54 4.24182 8.06387 14663 ft 290 kts 122°
2026-04-28 20:54 4.23001 8.08022 14152 ft 290 kts 122°
2026-04-28 20:54 4.21816 8.09665 13660 ft 290 kts 122°
2026-04-28 20:54 4.20637 8.11299 13108 ft 290 kts 122°
2026-04-28 20:55 4.19456 8.12936 12561 ft 289 kts 122°
2026-04-28 20:55 4.18278 8.14568 12028 ft 289 kts 122°
2026-04-28 20:55 4.17100 8.16201 11489 ft 288 kts 122°
2026-04-28 20:55 4.15927 8.17825 10981 ft 287 kts 122°
2026-04-28 20:56 4.14773 8.19424 10502 ft 285 kts 122°
2026-04-28 20:56 4.13621 8.21018 10157 ft 279 kts 122°
2026-04-28 20:56 4.12495 8.22576 9809 ft 273 kts 121°
2026-04-28 20:56 4.11391 8.24105 9421 ft 268 kts 122°
2026-04-28 20:57 4.10307 8.25606 9045 ft 264 kts 122°
2026-04-28 20:57 4.09241 8.27085 8673 ft 259 kts 122°
2026-04-28 20:57 4.08193 8.28537 8328 ft 255 kts 122°
2026-04-28 20:57 4.07165 8.29961 8008 ft 250 kts 123°
2026-04-28 20:58 4.06156 8.31359 7689 ft 245 kts 123°
2026-04-28 20:58 4.05164 8.32733 7379 ft 241 kts 123°
2026-04-28 20:58 4.04193 8.34078 7092 ft 236 kts 123°
2026-04-28 20:58 4.03238 8.35401 6803 ft 232 kts 124°
2026-04-28 20:59 4.02300 8.36698 6523 ft 228 kts 124°
2026-04-28 20:59 4.01999 8.37114 6437 ft 226 kts 124°
2026-04-28 20:59 3.99811 8.38636 6058 ft 250 kts 158°
2026-04-28 20:59 3.98132 8.39253 5794 ft 260 kts 158°
2026-04-28 21:00 3.96416 8.39871 5533 ft 262 kts 159°
2026-04-28 21:00 3.94720 8.40482 5276 ft 261 kts 159°
2026-04-28 21:00 3.93012 8.41100 5015 ft 260 kts 159°
2026-04-28 21:00 3.91310 8.41717 4737 ft 260 kts 159°
2026-04-28 21:01 3.89612 8.42335 4468 ft 258 kts 160°
2026-04-28 21:01 3.87924 8.42950 4189 ft 257 kts 160°
2026-04-28 21:01 3.86245 8.43563 3936 ft 257 kts 160°
2026-04-28 21:01 3.84565 8.44177 3666 ft 256 kts 160°
2026-04-28 21:02 3.82898 8.44786 3395 ft 254 kts 161°
2026-04-28 21:02 3.81241 8.45392 3140 ft 253 kts 161°
2026-04-28 21:02 3.79592 8.45995 2859 ft 251 kts 161°
2026-04-28 21:02 3.77951 8.46595 2597 ft 250 kts 161°
2026-04-28 21:03 3.76338 8.47185 2323 ft 249 kts 161°
2026-04-28 21:03 3.74714 8.47779 2083 ft 247 kts 161°
2026-04-28 21:03 3.73119 8.48363 2027 ft 242 kts 161°
2026-04-28 21:03 3.71550 8.48937 2012 ft 238 kts 161°
2026-04-28 21:04 3.69996 8.49505 1993 ft 236 kts 161°
2026-04-28 21:04 3.68417 8.49911 1986 ft 236 kts 181°
2026-04-28 21:04 3.66835 8.49542 2008 ft 236 kts 209°
2026-04-28 21:04 3.65633 8.48454 2000 ft 234 kts 237°
2026-04-28 21:05 3.65125 8.46955 1997 ft 231 kts 266°
2026-04-28 21:05 3.65416 8.45388 1995 ft 231 kts 295°
2026-04-28 21:05 3.66410 8.44141 1996 ft 231 kts 322°
2026-04-28 21:05 3.67834 8.43374 2032 ft 235 kts 337°
2026-04-28 21:06 3.69383 8.42779 2016 ft 241 kts 338°
2026-04-28 21:06 3.70959 8.42193 2000 ft 241 kts 338°
2026-04-28 21:06 3.72538 8.41666 1986 ft 240 kts 352°
2026-04-28 21:06 3.74141 8.41952 2001 ft 236 kts 30°
2026-04-28 21:07 3.75326 8.43049 2000 ft 232 kts 59°
2026-04-28 21:07 3.75881 8.44542 2001 ft 231 kts 86°
2026-04-28 21:07 3.75681 8.46117 2006 ft 230 kts 114°
2026-04-28 21:07 3.74773 8.47418 2035 ft 228 kts 141°
2026-04-28 21:08 3.73422 8.48222 2043 ft 227 kts 158°
2026-04-28 21:08 3.71967 8.48794 2039 ft 228 kts 161°
2026-04-28 21:08 3.70471 8.49353 2028 ft 230 kts 160°
2026-04-28 21:08 3.68989 8.49957 2020 ft 231 kts 148°
2026-04-28 21:09 3.67888 8.51119 2052 ft 230 kts 128°
2026-04-28 21:09 3.66896 8.52382 2037 ft 230 kts 131°
2026-04-28 21:09 3.65871 8.53583 2020 ft 221 kts 133°
2026-04-28 21:09 3.64882 8.54708 2023 ft 207 kts 133°
2026-04-28 21:10 3.63945 8.55759 2041 ft 199 kts 133°
2026-04-28 21:10 3.63010 8.56809 2053 ft 206 kts 129°
2026-04-28 21:10 3.62464 8.58113 2043 ft 211 kts 94°
2026-04-28 21:10 3.62847 8.59515 2041 ft 214 kts 53°
2026-04-28 21:11 3.63906 8.60556 2046 ft 215 kts 41°
2026-04-28 21:11 3.65035 8.61540 2046 ft 216 kts 41°
2026-04-28 21:11 3.66169 8.62537 2050 ft 216 kts 41°
2026-04-28 21:11 3.67318 8.63515 2041 ft 215 kts 40°
2026-04-28 21:12 3.68425 8.64466 2021 ft 201 kts 41°
2026-04-28 21:12 3.69414 8.65343 2022 ft 182 kts 42°
2026-04-28 21:12 3.70310 8.66147 2011 ft 166 kts 43°
2026-04-28 21:12 3.71148 8.66903 2058 ft 161 kts 42°
2026-04-28 21:13 3.71984 8.67657 2061 ft 162 kts 42°
2026-04-28 21:13 3.72824 8.68416 2053 ft 162 kts 43°
2026-04-28 21:13 3.73654 8.69207 1790 ft 173 kts 43°
2026-04-28 21:13 3.74277 8.69744 1353 ft 183 kts 43°
2026-04-28 21:14 3.75496 8.70995 495 ft 191 kts 45°
2026-04-28 21:14 3.75903 8.71398 271 ft 190 kts 44°